Flag for Germany Weather past 2 weeks in Pirmasens, Rhineland-Palatinate, Germany

Now
61 °F

Clear.


Feels Like: 61 °F
Forecast: 58 / 74 °F
Wind: 3 mph from North

Location: Zweibrucken - Rheinland-Pfalz

Current Time: Sep 19, 2014 at 3:59:07 AM

Latest Report: Sep 19, 2014 at 3:20 AM


Visibility: 10 mi

Pressure: 29.89 "Hg

Humidity: 94%

Dew point: 59 °F

Location of PirmasensLocation

Historic Weather in Pirmasens — Graph

°F

Pirmasens temperature yesterday

Maximum temperature yesterday: 75 °F (at 2:20 PM)
Minimum temperature yesterday: 61 °F (at 7:50 AM)
Average temperature yesterday: 68 °F

Past Weeks' High & Low Weather Summary

 TemperatureHumidityPressure
High79 °F (Sep 17, 3:20 PM)100% (Sep 4, 11:20 PM)30.18 "Hg (Sep 4, 11:20 PM)
Low46 °F (Sep 12, 5:20 AM)53% (Sep 7, 2:50 PM)29.86 "Hg (Sep 17, 4:20 PM)
Average62 °F82%30.02 "Hg
* Reported Sep 4 3:50 AM — Sep 19 2:50 AM, Pirmasens, Weather by CustomWeather, © 2014

Note: Actual official high and low records may vary slightly from our data, if they occured in-between our weather recording intervals... More about our weather records

Advertising

Pirmasens weather history for previous 24 hours

 ConditionsComfort  
Time TempWeatherWind HumidityBarometerVisibility
2:50 AM
Sep 19
61 °FClear.3 mph94%29.89 "Hg10 mi
2:20 AM61 °FClear.2 mph94%29.89 "Hg10 mi
1:50 AM61 °FClear.2 mph94%29.92 "Hg10 mi
1:20 AM61 °FClear.3 mph94%29.89 "Hg10 mi
9:50 PM
Sep 18
64 °FLight rain. Passing clouds.3 mph94%29.92 "HgN/A
9:20 PM66 °FLight rain. Partly sunny.6 mph88%29.92 "HgN/A
8:50 PM66 °FSunny.1 mph88%29.89 "Hg10 mi
8:20 PM66 °FSunny.3 mph88%29.89 "Hg10 mi
7:50 PM68 °FSunny.3 mph83%29.89 "Hg10 mi
7:20 PM68 °FSunny.2 mph83%29.89 "Hg10 mi
6:50 PM70 °FSunny.2 mph78%29.89 "Hg10 mi
6:20 PM70 °FSunny.3 mph83%29.89 "Hg10 mi
5:50 PM70 °FPassing clouds.5 mph83%29.89 "HgN/A
5:20 PM70 °FPassing clouds.6 mph78%29.89 "HgN/A
4:50 PM70 °FScattered clouds.5 mph83%29.89 "HgN/A
4:20 PM70 °FLight rain. Scattered clouds.6 mph78%29.89 "HgN/A
3:50 PM73 °FSunny.6 mph74%29.89 "Hg10 mi
3:20 PM73 °FPartly sunny.6 mph69%29.89 "HgN/A
2:50 PM73 °FPartly sunny.2 mph65%29.89 "HgN/A
2:20 PM75 °FSunny.5 mph65%29.89 "Hg10 mi
1:50 PM73 °FPassing clouds.5 mph69%29.89 "HgN/A
1:20 PM73 °FSunny.3 mph74%29.89 "Hg10 mi
12:50 PM70 °FSunny.2 mph78%29.89 "Hg10 mi
12:20 PM70 °FSunny.3 mph83%29.89 "Hg10 mi
11:50 AM70 °FSunny.3 mph83%29.89 "Hg10 mi
11:20 AM68 °FSunny.3 mph83%29.89 "Hg10 mi
10:50 AM70 °FSunny.3 mph83%29.89 "Hg10 mi
10:20 AM66 °FScattered showers. Scattered clouds.2 mph88%29.89 "HgN/A
9:50 AM64 °FSunny.3 mph88%29.89 "Hg10 mi
9:20 AM63 °FLight rain. Scattered clouds.1 mph88%29.89 "HgN/A
8:50 AM61 °FClear.2 mph94%29.89 "Hg10 mi
8:20 AM61 °FLight rain. Passing clouds.3 mph94%29.89 "HgN/A
7:50 AM61 °FPartly cloudy.2 mph94%29.89 "HgN/A
4:20 AM63 °FClear.3 mph83%29.89 "Hg10 mi
3:50 AM63 °FClear.5 mph83%29.89 "Hg10 mi
Weather by CustomWeather, © 2014

See weather overviewHow to use our weather pages